This is the latest recevied weather packets stored in our database for station/object VK1KCM-5. If no packets are shown the sender has not sent any weather packets the latest 10 day(s).
| Time | Temp. | Humidity | Pressure | Rain* | Wind** | Luminosity | Snow |
|---|---|---|---|---|---|---|---|
| 1788083071 | 10.56° C | 83% | 1028.6 hPa | 0 mm | - | - | - |
| 1788082803 | 10.56° C | 83% | 1028.8 hPa | 0 mm | - | - | - |
| 1788082528 | 10.56° C | 82% | 1028.5 hPa | 0 mm | - | - | - |
| 1788082251 | 10.56° C | 82% | 1028.5 hPa | 0 mm | - | - | - |
| 1788081998 | 10.56° C | 82% | 1028.6 hPa | 0 mm | - | - | - |
| 1788081743 | 11.11° C | 82% | 1028.6 hPa | 0 mm | - | - | - |
| 1788081498 | 11.11° C | 80% | 1028.5 hPa | 0 mm | - | - | - |
| 1788081228 | 11.67° C | 79% | 1028.3 hPa | 0 mm | - | - | - |
| 1788080968 | 12.22° C | 78% | 1027.9 hPa | 0 mm | - | - | - |
| 1788080718 | 12.78° C | 76% | 1027.8 hPa | 0 mm | - | - | - |
| 1788080446 | 12.78° C | 76% | 1027.8 hPa | 0 mm | - | - | - |
| 1788080190 | 12.22° C | 77% | 1028 hPa | 0 mm | - | - | - |
| 1788079938 | 11.67° C | 80% | 1027.8 hPa | 0 mm | - | - | - |
| 1788079680 | 11.67° C | 80% | 1028 hPa | 0 mm | - | - | - |
| 1788079408 | 11.67° C | 78% | 1028 hPa | 0 mm | - | - | - |
| 1788079123 | 12.22° C | 77% | 1027.7 hPa | 0 mm | - | - | - |
| 1788078845 | 12.78° C | 76% | 1027.4 hPa | 0 mm | - | - | - |
| 1788078558 | 12.78° C | 77% | 1027.5 hPa | 0 mm | - | - | - |
| 1788078298 | 12.78° C | 76% | 1027.1 hPa | 0 mm | - | - | - |
| 1788078031 | 12.78° C | 76% | 1027.1 hPa | 0 mm | - | - | - |
| 1788077758 | 12.78° C | 75% | 1027.5 hPa | 0 mm | - | - | - |
| 1788077478 | 13.33° C | 75% | 1027.3 hPa | 0 mm | - | - | - |
| 1788077193 | 13.89° C | 74% | 1027 hPa | 0 mm | - | - | - |
| 1788076948 | 13.89° C | 72% | 1027 hPa | 0 mm | - | - | - |
| 1788076651 | 13.89° C | 72% | 1027 hPa | 0 mm | - | - | - |
* Rain latest hour (hover to see other rain measurements)
** Current wind speed in m/s (hover to see current wind gust speed)